Regional Weather Roundup
Issued by NWS

Home | Current Version | Previous Version | Text Only | Print | Product List | Glossary Off
Versions: 1 2 3 4 5 6 7 8 9 10 11 12 13 14 15 16 17 18 19 20 21 22 23 24 25 26 27 28 29 30 31 32 33 34 35 36 37 38 39 40 41 42 43 44 45 46 47 48 49 50

000
ASUS43 KOAX 160502
RWRNE

WEATHER ROUNDUP FOR NEBRASKA
NATIONAL WEATHER SERVICE OMAHA NE
1200 AM CDT WED AUG 16 2017

NOTES: SATELLITE DATA IS BEING USED TO AUGMENT CLOUD COVER ABOVE
       12000 FEET.
       "FAIR" INDICATES FEW OR NO CLOUDS BELOW 12,000 FEET WITH NO
       SIGNIFICANT WEATHER AND/OR OBSTRUCTIONS TO VISIBILITY.


NEZ001>004-019>022-054>056-160600-
NEBRASKA PANHANDLE

CITY           SKY/WX    TMP DP  RH WIND       PRES   REMARKS
SCOTTSBLUFF    CLOUDY    62  56  80 W6        29.96R
ALLIANCE       CLOUDY    60  58  92 N8        29.92S
CHADRON        CLOUDY    62  59  90 N6        29.92R
GORDON         LGT RAIN  62  59  92 NE6       29.93S
KIMBALL        CLOUDY    59  57  92 W5        30.00F
SIDNEY         LGT RAIN  60  57  89 NW17      29.98R
$$

NEZ057>060-069>072-079>082-160600-
SOUTHWEST NEBRASKA

CITY           SKY/WX    TMP DP  RH WIND       PRES   REMARKS
NORTH PLATTE   TSTM      62  61  96 N18G44    29.93R VSB 1
IMPERIAL       TSTM      64  59  83 N16G23    29.90R
LEXINGTON      CLOUDY    65  61  87 E15       29.86S
MCCOOK         PTCLDY    74  65  73 S12G17    29.77F
OGALLALA       RAIN      64  62  91 NE13      29.93R
$$

NEZ005>010-023>029-035>040-094-160600-
NORTH CENTRAL NEBRASKA

CITY           SKY/WX    TMP DP  RH WIND       PRES   REMARKS
VALENTINE      RAIN      64  60  87 W15       29.92S
AINSWORTH      TSTM      63  61  95 NW20G26   29.89R
BROKEN BOW     TSTM      63  63 100 NE7       29.87S FOG
O`NEILL        LGT RAIN  66  65  96 SE5       29.82F
ORD            LGT RAIN  66  62  87 SE14G23   29.85S
THEDFORD       RAIN      63  61  94 N10       29.99R
$$

NEZ041-046>049-061>064-073>077-083>087-160600-
SOUTH CENTRAL NEBRASKA

CITY           SKY/WX    TMP DP  RH WIND       PRES   REMARKS
GRAND ISLAND   TSTM      65  65 100 NE8       29.90R FOG
AURORA         CLOUDY    64  64 100 NE15      29.86R
HASTINGS       TSTM      66  64  93 N13       29.88  FOG
HEBRON         CLOUDY    74  69  84 CALM      29.83S
HOLDREGE       MOCLDY    67  64  90 NE14      29.86S
KEARNEY        CLOUDY    65  63  93 N9        29.90R
YORK           LGT RAIN  66  64  94 NE13      29.86S
$$

NEZ011>018-030>034-042>045-160600-
NORTHEAST NEBRASKA

CITY           SKY/WX    TMP DP  RH WIND       PRES   REMARKS
NORFOLK        LGT RAIN  68  64  87 S16       29.85R
ALBION         RAIN      67  65  94 SE8       29.88R
BLAIR          LGT RAIN  68  66  95 E8        29.88F
COLUMBUS       TSTM      67  65  93 E3        29.87F
FREMONT        CLOUDY    67  65  94 SE9       29.86S
TEKAMAH        LGT RAIN  70  66  87 S15G21    29.84F
WAYNE          LGT RAIN  67  64  91 S8        29.82S
$$

NEZ050>053-065>068-078-088>093-160600-
SOUTHEAST NEBRASKA

CITY           SKY/WX    TMP DP  RH WIND       PRES   REMARKS
LINCOLN        CLOUDY    69  66  90 E14       29.85F
OMAHA EPPLEY   CLOUDY    69  65  86 NE6       29.89F THUNDER
BEATRICE       MOCLDY    78  71  78 SE12      29.83F
FALLS CITY     CLOUDY    74  71  91 E5        29.85F
NEBRASKA CITY  CLOUDY    73  72  95 N6        29.88S
PLATTSMOUTH    CLOUDY    72  65  77 NE7       29.89F
$$

NEZ044-045-051>053-067-160600-
OMAHA AREA

CITY           SKY/WX    TMP DP  RH WIND       PRES   REMARKS
OMAHA EPPLEY   CLOUDY    69  65  86 NE6       29.89F THUNDER
BLAIR          LGT RAIN  68  66  95 E8        29.88F
FREMONT        CLOUDY    67  65  94 SE9       29.86S
MILLARD        PTCLDY    69  67  93 CALM      29.88F
OFFUTT AFB     LGT RAIN  71  64  80 NE7       29.88F
PLATTSMOUTH    CLOUDY    72  65  77 NE7       29.89F
WAHOO          FAIR      67  66  96 E12       29.86F
$$




USA.gov is the U.S. government's official web portal to all federal, state and local government web resources and services.